Location: Lane
(33.5226°N, 79.8788°W)
Time: 20:25:37
(UTC+00:00)

Explorer 11/Cluster Stage 4 - Pass Details

Date: 09 October 2022
Orbit: 466 x 1247 km, 28.8° (Epoch: 01 December)

Event Time Altitude Azimuth Distance (km) Brightness Sun altitude
Rises 17:49:15 0° 272° (W) 4,174 10.4 48.8°
Reaches altitude 10° 17:52:18 10° 267° (W) 3,214 10.0 48.6°
Maximum altitude 18:00:06 49° 196° (SSW) 1,508 11.8 48.1°
Drops below altitude 10° 18:07:14 10° 124° (ESE) 2,941 9.7 47.5°
Sets 18:09:54 0° 118° (ESE) 3,797 10.1 47.3°
